Location: Bowman Observatory
(41.0326°N, 73.6210°W)
Time: 22:30:14
(UTC-04:00)

Cosmos 2298 Rocket - Visible Passes

Search period start: 06 July 2015 00:00
Search period end: 16 July 2015 00:00
Orbit: 776 x 784 km, 74.0° (Epoch: 05 July)

Date Brightness Start Highest point End Pass type
(mag) Time Alt. Az. Time Alt. Az. Time Alt. Az.
06 Jul 6.3 02:20:32 10° N 02:24:29 21° ENE 02:28:33 10° ESE visible
06 Jul 4.2 04:02:03 10° NNW 04:07:12 51° WSW 04:12:17 10° S visible
07 Jul 6.7 01:48:02 10° NNE 01:50:45 14° NE 01:53:40 10° E visible
07 Jul 3.9 03:28:33 10° NNW 03:33:53 82° WSW 03:39:02 11° SSE visible
08 Jul 4.4 02:55:13 10° NNW 03:00:30 64° ENE 03:04:56 15° SSE visible
08 Jul 5.7 04:39:15 10° WNW 04:42:20 15° W 04:45:08 10° SW visible
09 Jul 5.1 02:22:01 10° N 02:27:01 41° ENE 02:31:03 15° SE visible
09 Jul 5.2 04:04:54 10° NW 04:09:09 24° W 04:11:30 18° SW visible
10 Jul 5.8 01:49:00 10° N 01:53:27 27° ENE 01:57:20 13° ESE visible
10 Jul 4.6 03:31:02 10° NW 03:35:55 38° WSW 03:37:47 29° SW visible
11 Jul 6.3 01:16:14 10° NNE 01:19:47 18° NE 01:23:28 10° E visible
11 Jul 4.0 02:57:25 10° NNW 03:02:39 62° WSW 03:04:12 43° SSW visible
12 Jul 6.6 00:44:05 10° NNE 00:46:00 12° NE 00:48:11 10° ENE visible
12 Jul 4.0 02:23:59 10° NNW 02:29:19 84° ENE 02:30:43 51° SSE visible
12 Jul 6.0 04:09:28 10° WNW 04:10:59 11° W 04:11:11 11° W visible
13 Jul 4.6 01:50:42 10° N 01:55:54 54° ENE 01:57:19 41° ESE visible
13 Jul 5.5 03:34:12 10° NW 03:37:48 18° W 03:37:48 18° W visible
14 Jul 5.3 01:17:34 10° N 01:22:23 35° ENE 01:23:59 29° E visible
14 Jul 5.0 03:00:05 10° NW 03:04:28 29° W 03:04:28 29° W visible
15 Jul 5.8 00:44:38 10° N 00:48:46 23° ENE 00:50:43 19° E visible
15 Jul 4.4 02:26:20 10° NNW 02:31:12 46° W 02:31:12 46° W visible
